Weather History for Leadville, CO

Change the Weather History Date:

Sunday, April 22, 2012

  Actual Average Record
Temperature  
Mean Temperature 43 °F -  
Max Temperature 60 °F 45 °F 61 °F (2006)
Min Temperature 25 °F 20 °F 3 °F (1984)
Degree Days  
Heating Degree Days 22 32  
Month to date heating degree days 661 772  
Since 1 July heating degree days 9295 9755  
Cooling Degree Days 0 0  
Month to date cooling degree days 0 0  
Year to date cooling degree days 0 0  
Moisture  
Dew Point 21 °F    
Average Humidity 47    
Maximum Humidity 75    
Minimum Humidity 19    
Precipitation  
Precipitation 0.00 in 0.04 in 0.31 in (1999)
Month to date precipitation 0.56 0.79  
Year to date precipitation 2.96 3.05  
Snow  
Snow 0.00 in - - ()
Month to date snowfall 0.0  
Snow Depth 0.00 in    
Sea Level Pressure  
Sea Level Pressure 30.10 in    
Wind  
Wind Speed 5 mph (North)    
Max Wind Speed 23 mph    
Max Gust Speed 41 mph    
Visibility 10 miles    
Events      
T = Trace of Precipitation, MM = Missing Value Source: NWS Daily Summary

Daily Weather History Graph

Daily Weather History Graph

Search for Another Location

Airport:

Trip Planner

Search our weather history database for the weather conditions in past years. The results will help you decide how hot, cold, wet, or windy it might be!

Date:

Astronomy

Apr. 22, 2012 Rise Set
Actual Time 6:17 AM MDT 7:50 PM MDT
Civil Twilight 5:49 AM MDT 8:18 PM MDT
Nautical Twilight 5:15 AM MDT 8:52 PM MDT
Astronomical Twilight 4:39 AM MDT 9:28 PM MDT
Moon 6:51 AM MDT (4/22) 9:28 PM MDT (4/22)
Length of Visible Light 14h 29m
Length of Day
13h 32m
New Moon, 2% of the Moon is Illuminated
Apr 22
New Moon
Apr 29
First Quarter
May 5
Full
May 12
Last Quarter
May 20
New

Hourly Weather History & Observations

Time (MDT) Temp. Windchill Dew Point Humidity Pressure Visibility Wind Dir Wind Speed Gust Speed Precip Events Conditions
12:53 AM 30.9 °F - 21.9 °F 69% 30.11 in 10.0 mi Calm Calm - N/A   Clear
1:53 AM 32.0 °F - 21.0 °F 64% 30.09 in 10.0 mi Calm Calm - N/A   Clear
2:53 AM 33.1 °F - 21.0 °F 61% 30.07 in 10.0 mi Calm Calm - N/A   Clear
3:53 AM 30.0 °F - 21.9 °F 72% 30.09 in 10.0 mi Calm Calm - N/A   Clear
4:53 AM 30.0 °F 26.5 °F 21.0 °F 69% 30.09 in 10.0 mi ENE 3.5 mph - N/A   Clear
5:53 AM 28.0 °F - 21.0 °F 75% 30.12 in 10.0 mi Calm Calm - N/A   Clear
6:53 AM 30.0 °F - 21.0 °F 69% 30.15 in 10.0 mi Calm Calm - N/A   Clear
7:53 AM 37.9 °F 35.5 °F 24.1 °F 57% 30.11 in 10.0 mi NE 3.5 mph - N/A   Clear
8:53 AM 43.0 °F - 25.0 °F 49% 30.13 in 10.0 mi Calm Calm - N/A   Clear
9:53 AM 50.0 °F - 21.9 °F 33% 30.10 in 10.0 mi Calm Calm - N/A   Clear
10:53 AM 53.1 °F - 19.0 °F 26% 30.10 in 10.0 mi NW 11.5 mph 16.1 mph N/A   Partly Cloudy
11:53 AM 55.0 °F - 18.0 °F 23% 30.08 in 10.0 mi NNW 9.2 mph 18.4 mph N/A   Mostly Cloudy
12:53 PM 57.0 °F - 15.1 °F 19% 30.08 in 10.0 mi NW 9.2 mph - N/A   Clear
1:53 PM 57.9 °F - 16.0 °F 19% 30.06 in 10.0 mi NNW 11.5 mph 23.0 mph N/A   Clear
2:53 PM 55.9 °F - 19.0 °F 24% 30.06 in 10.0 mi West 13.8 mph 19.6 mph N/A   Partly Cloudy
3:53 PM 57.0 °F - 19.0 °F 23% 30.06 in 10.0 mi NW 11.5 mph - N/A   Clear
4:53 PM 55.0 °F - 18.0 °F 23% 30.08 in 10.0 mi North 10.4 mph 20.7 mph N/A   Mostly Cloudy
5:53 PM 52.0 °F - 23.0 °F 32% 30.13 in 10.0 mi NNW 13.8 mph - N/A   Mostly Cloudy
6:53 PM 52.0 °F - 21.9 °F 31% 30.12 in 10.0 mi NNE 9.2 mph 18.4 mph N/A   Scattered Clouds
7:53 PM 48.9 °F - 21.0 °F 33% 30.08 in 10.0 mi Calm Calm - N/A   Clear
8:53 PM 41.0 °F 39.0 °F 21.9 °F 47% 30.12 in 10.0 mi East 3.5 mph - N/A   Scattered Clouds
9:53 PM 39.0 °F 35.7 °F 21.9 °F 50% 30.11 in 10.0 mi East 4.6 mph - N/A   Clear
10:53 PM 34.0 °F 29.8 °F 21.9 °F 61% 30.12 in 10.0 mi ENE 4.6 mph - N/A   Clear
11:53 PM 39.0 °F 36.8 °F 23.0 °F 53% 30.08 in 10.0 mi ESE 3.5 mph - N/A   Clear